Corpus Christi, TX

4:25 AM CDT on May 25, 2017 (GMT -0500)
Corpus Christi International

Weather History for KCRP - February, 2012

Change the Weather History Date:

Monday, February 27, 2012

  Actual Average Record
Temperature  
Mean Temperature 66 °F 63 °F  
Max Temperature 68 °F 73 °F 96 °F (1954)
Min Temperature 64 °F 53 °F 24 °F (2002)
Degree Days  
Heating Degree Days 0 5  
Month to date heating degree days 132 170  
Since 1 July heating degree days 588 797  
Cooling Degree Days 1 2  
Month to date cooling degree days 64 47  
Year to date cooling degree days 125 77  
Growing Degree Days 15 (Base 50)    
Moisture  
Dew Point 63 °F    
Average Humidity 91    
Maximum Humidity 100    
Minimum Humidity 81    
Precipitation  
Precipitation 0.03 in 0.08 in 1.26 in (1985)
Month to date precipitation 4.09 1.84  
Year to date precipitation 4.54 3.38  
Snow  
Snow 0.00 in - - ()
Month to date snowfall 0.0  
Since 1 July snowfall 0.0  
Snow Depth 0.00 in    
Sea Level Pressure  
Sea Level Pressure 30.11 in    
Wind  
Wind Speed 14 mph (East)    
Max Wind Speed 21 mph    
Max Gust Speed 26 mph    
Visibility 5 miles    
Events Fog , Rain    
T = Trace of Precipitation, MM = Missing Value Source: NWS Daily Summary

Daily Weather History Graph

Daily Weather History Graph

Search for Another Location

Airport or City:

Trip Planner

Search our weather history database for the weather conditions in past years. The results will help you decide how hot, cold, wet, or windy it might be!

Date:

Astronomy

Feb. 27, 2012 Rise Set
Actual Time 6:56 AM CST 6:29 PM CST
Civil Twilight 6:33 AM CST 6:52 PM CST
Nautical Twilight 6:06 AM CST 7:19 PM CST
Astronomical Twilight 5:39 AM CST 7:46 PM CST
Moon 10:01 AM CST (2/27) 11:47 PM CST (2/27)
Length of Visible Light 12h 19m
Length of Day
11h 32m
Waxing Crescent, 29% of the Moon is Illuminated
Feb 27
Waxing Crescent
Feb 29
First Quarter
Mar 8
Full
Mar 14
Last Quarter
Mar 22
New

Hourly Weather History & Observations

Time (CST) Temp. Dew Point Humidity Pressure Visibility Wind Dir Wind Speed Gust Speed Precip Events Conditions
12:51 AM 66.0 °F 61.0 °F 84% 30.07 in 10.0 mi ESE 13.8 mph - N/A   Overcast
1:51 AM 64.9 °F 61.0 °F 87% 30.09 in 10.0 mi ESE 9.2 mph - N/A   Mostly Cloudy
2:51 AM 64.9 °F 61.0 °F 87% 30.08 in 10.0 mi East 9.2 mph - N/A   Mostly Cloudy
3:51 AM 64.9 °F 61.0 °F 87% 30.07 in 10.0 mi East 9.2 mph - N/A   Overcast
4:13 AM 64.4 °F 62.6 °F 94% 30.08 in 10.0 mi East 6.9 mph - N/A   Overcast
4:49 AM 64.4 °F 62.6 °F 94% 30.08 in 10.0 mi East 10.4 mph - N/A   Overcast
4:51 AM 64.9 °F 62.1 °F 90% 30.08 in 10.0 mi East 10.4 mph - N/A   Overcast
5:51 AM 64.9 °F 63.0 °F 93% 30.08 in 10.0 mi East 12.7 mph - N/A   Overcast
6:25 AM 64.4 °F 62.6 °F 94% 30.09 in 10.0 mi ENE 11.5 mph - N/A   Overcast
6:43 AM 64.4 °F 62.6 °F 94% 30.10 in 10.0 mi East 8.1 mph - 0.00 in Rain Light Rain
6:51 AM 64.9 °F 63.0 °F 93% 30.11 in 9.0 mi East 6.9 mph - 0.00 in   Overcast
7:42 AM 64.4 °F 62.6 °F 94% 30.12 in 9.0 mi East 11.5 mph - N/A   Overcast
7:51 AM 64.9 °F 63.0 °F 93% 30.13 in 8.0 mi ENE 13.8 mph - N/A   Overcast
8:51 AM 66.0 °F 63.0 °F 90% 30.15 in 8.0 mi ENE 13.8 mph - N/A   Overcast
9:44 AM 66.2 °F 64.4 °F 94% 30.15 in 10.0 mi East 15.0 mph - N/A   Overcast
9:51 AM 66.9 °F 64.0 °F 90% 30.15 in 10.0 mi East 15.0 mph - N/A   Overcast
10:51 AM 66.9 °F 64.0 °F 90% 30.17 in 10.0 mi ENE 15.0 mph - N/A   Overcast
11:51 AM 66.9 °F 64.0 °F 90% 30.16 in 10.0 mi East 15.0 mph - N/A   Overcast
12:51 PM 66.9 °F 64.0 °F 90% 30.14 in 7.0 mi ENE 17.3 mph - 0.00 in Rain Light Rain
1:37 PM 66.2 °F 64.4 °F 94% 30.13 in 2.0 mi East 16.1 mph - 0.00 in Rain Light Rain
1:39 PM 66.2 °F 64.4 °F 94% 30.12 in 2.0 mi East 16.1 mph 23.0 mph 0.00 in   Light Drizzle
1:51 PM 66.0 °F 64.0 °F 93% 30.12 in 2.0 mi East 17.3 mph - 0.00 in   Light Drizzle
2:42 PM 66.2 °F 64.4 °F 94% 30.11 in 1.0 mi East 17.3 mph - 0.00 in   Light Drizzle
2:51 PM 66.0 °F 64.0 °F 93% 30.10 in 1.0 mi East 16.1 mph - 0.00 in   Light Drizzle
2:57 PM 66.2 °F 64.4 °F 94% 30.10 in 0.5 mi East 16.1 mph 24.2 mph 0.00 in   Light Drizzle
3:04 PM 66.2 °F 64.4 °F 94% 30.10 in 0.2 mi ENE 15.0 mph 24.2 mph 0.00 in Fog Light Drizzle
3:51 PM 64.9 °F 64.0 °F 97% 30.10 in 0.2 mi ENE 16.1 mph - 0.00 in Fog Drizzle
4:51 PM 64.0 °F 63.0 °F 96% 30.10 in 0.2 mi ENE 18.4 mph 24.2 mph 0.01 in Fog Light Drizzle
5:51 PM 64.0 °F 63.0 °F 96% 30.11 in 0.2 mi East 12.7 mph - 0.00 in Fog Light Drizzle
6:47 PM 64.4 °F 62.6 °F 94% 30.10 in 0.2 mi East 17.3 mph - 0.00 in   Light Drizzle
6:51 PM 64.0 °F 63.0 °F 96% 30.11 in 0.2 mi East 15.0 mph 24.2 mph 0.00 in   Light Drizzle
7:51 PM 64.0 °F 63.0 °F 96% 30.11 in 0.2 mi East 19.6 mph 25.3 mph 0.00 in   Light Drizzle
8:51 PM 64.0 °F 63.0 °F 96% 30.13 in 1.8 mi East 15.0 mph - 0.01 in Rain Light Rain
9:51 PM 64.9 °F 64.0 °F 97% 30.14 in 1.0 mi East 17.3 mph - 0.00 in   Light Drizzle
10:51 PM 64.9 °F 64.0 °F 97% 30.14 in 1.0 mi East 16.1 mph - 0.01 in   Light Drizzle
11:51 PM 66.0 °F 64.9 °F 96% 30.12 in 1.0 mi East 13.8 mph - 0.00 in   Overcast